Weather History for Chariton, IA

Change the Weather History Date:

Saturday, January 19, 2013

  Actual Average Record
Temperature  
Mean Temperature 42 °F -  
Max Temperature 57 °F 31 °F 60 °F (1952)
Min Temperature 24 °F 11 °F -19 °F (1970)
Degree Days  
Heating Degree Days 24    
Moisture  
Dew Point 28 °F    
Average Humidity 56    
Maximum Humidity 70    
Minimum Humidity 31    
Precipitation  
Precipitation 0.00 in - - ()
Sea Level Pressure  
Sea Level Pressure 29.99 in    
Wind  
Wind Speed 13 mph (West)    
Max Wind Speed 26 mph    
Max Gust Speed 40 mph    
Visibility 10 miles    
Events      
Averages and records for this station are not official NWS values.
T = Trace of Precipitation, MM = Missing Value Source: NWS Daily Summary

Daily Weather History Graph

Daily Weather History Graph

Search for Another Location

Airport:

Trip Planner

Search our weather history database for the weather conditions in past years. The results will help you decide how hot, cold, wet, or windy it might be!

Date:

Astronomy

Jan. 19, 2013 Rise Set
Actual Time 7:34 AM CST 5:14 PM CST
Civil Twilight 7:04 AM CST 5:44 PM CST
Nautical Twilight 6:30 AM CST 6:18 PM CST
Astronomical Twilight 5:57 AM CST 6:51 PM CST
Moon 11:42 AM CST (1/19) 1:08 AM CST (1/19)
Length of Visible Light 10h 40m
Length of Day
9h 40m
First Quarter, 57% of the Moon is Illuminated
Jan 19
First Quarter
Jan 26
Full
Feb 3
Last Quarter
Feb 10
New
Feb 17
First Quarter

Hourly Weather History & Observations

Time (CST) Temp. Windchill Dew Point Humidity Pressure Visibility Wind Dir Wind Speed Gust Speed Precip Events Conditions
12:15 AM 44.6 °F 39.2 °F 32.0 °F 61% 29.93 in 10.0 mi SW 10.4 mph 16.1 mph N/A   Clear
12:35 AM 44.6 °F 40.2 °F 32.0 °F 61% 29.92 in 10.0 mi SSW 8.1 mph - N/A   Clear
12:55 AM 42.8 °F 38.0 °F 32.0 °F 66% 29.92 in 10.0 mi SW 8.1 mph - N/A   Clear
1:15 AM 42.8 °F 37.5 °F 32.0 °F 66% 29.92 in 10.0 mi SSW 9.2 mph - N/A   Clear
1:35 AM 42.8 °F 37.5 °F 32.0 °F 66% 29.92 in 10.0 mi SSW 9.2 mph - N/A   Clear
1:55 AM 41.0 °F 35.2 °F 32.0 °F 70% 29.93 in 10.0 mi SSW 9.2 mph - N/A   Clear
2:15 AM 39.2 °F 32.5 °F 30.2 °F 70% 29.92 in 10.0 mi SSW 10.4 mph - N/A   Clear
2:35 AM 39.2 °F 32.0 °F 30.2 °F 70% 29.92 in 10.0 mi SSW 11.5 mph - N/A   Clear
2:55 AM 41.0 °F 34.7 °F 30.2 °F 65% 29.91 in 10.0 mi SSW 10.4 mph - N/A   Clear
3:15 AM 41.0 °F 33.9 °F 30.2 °F 65% 29.91 in 10.0 mi SSW 12.7 mph 16.1 mph N/A   Clear
3:35 AM 41.0 °F 33.9 °F 32.0 °F 70% 29.90 in 10.0 mi SSW 12.7 mph - N/A   Clear
3:55 AM 41.0 °F 33.5 °F 30.2 °F 65% 29.89 in 10.0 mi SSW 13.8 mph 17.3 mph N/A   Clear
4:15 AM 41.0 °F 33.9 °F 32.0 °F 70% 29.88 in 10.0 mi SSW 12.7 mph - N/A   Clear
4:35 AM 41.0 °F 33.1 °F 30.2 °F 65% 29.88 in 10.0 mi SSW 15.0 mph 18.4 mph N/A   Clear
4:55 AM 39.2 °F 32.0 °F 30.2 °F 70% 29.88 in 10.0 mi SSW 11.5 mph - N/A   Clear
5:15 AM 39.2 °F 32.0 °F 30.2 °F 70% 29.88 in 10.0 mi SSW 11.5 mph - N/A   Clear
5:35 AM 39.2 °F 32.5 °F 30.2 °F 70% 29.88 in 10.0 mi SSW 10.4 mph - N/A   Clear
5:55 AM 39.2 °F 32.0 °F 30.2 °F 70% 29.87 in 10.0 mi SSW 11.5 mph - N/A   Clear
6:55 AM 39.2 °F 33.0 °F 30.2 °F 70% 29.88 in 10.0 mi SW 9.2 mph - N/A   Clear
7:15 AM 39.2 °F 33.0 °F 30.2 °F 70% 29.88 in 10.0 mi SW 9.2 mph - N/A   Clear
7:55 AM 39.2 °F 32.5 °F 30.2 °F 70% 29.88 in 10.0 mi SW 10.4 mph - N/A   Clear
8:15 AM 39.2 °F 32.0 °F 30.2 °F 70% 29.87 in 10.0 mi SW 11.5 mph 17.3 mph N/A   Clear
8:35 AM 39.2 °F 31.6 °F 30.2 °F 70% 29.88 in 10.0 mi SW 12.7 mph - N/A   Clear
9:55 AM 42.8 °F 36.6 °F 33.8 °F 70% 29.91 in 10.0 mi WSW 11.5 mph - N/A   Clear
10:15 AM 44.6 °F 38.4 °F 33.8 °F 66% 29.92 in 10.0 mi WSW 12.7 mph - N/A   Clear
10:35 AM 46.4 °F 40.7 °F 33.8 °F 62% 29.94 in 10.0 mi West 12.7 mph - N/A   Clear
11:15 AM 48.2 °F - 32.0 °F 54% 29.93 in 10.0 mi West 13.8 mph - N/A   Clear
11:35 AM 51.8 °F - 32.0 °F 47% 29.91 in 10.0 mi West 11.5 mph - N/A   Clear
11:55 AM 51.8 °F - 30.2 °F 44% 29.90 in 10.0 mi West 13.8 mph 17.3 mph N/A   Clear
12:15 PM 53.6 °F - 28.4 °F 38% 29.90 in 10.0 mi West 16.1 mph - N/A   Clear
12:35 PM 55.4 °F - 28.4 °F 36% 29.89 in 10.0 mi West 12.7 mph 19.6 mph N/A   Clear
12:55 PM 55.4 °F - 28.4 °F 36% 29.88 in 10.0 mi West 13.8 mph - N/A   Clear
1:55 PM 57.2 °F - 26.6 °F 31% 29.89 in 10.0 mi WNW 24.2 mph 29.9 mph N/A   Clear
2:15 PM 57.2 °F - 26.6 °F 31% 29.90 in 10.0 mi WNW 21.9 mph 27.6 mph N/A   Clear
2:35 PM 57.2 °F - 28.4 °F 33% 29.91 in 10.0 mi West 19.6 mph 25.3 mph N/A   Clear
2:55 PM 57.2 °F - 28.4 °F 33% 29.92 in 10.0 mi WNW 16.1 mph 25.3 mph N/A   Clear
3:15 PM 57.2 °F - 26.6 °F 31% 29.92 in 10.0 mi West 20.7 mph 25.3 mph N/A   Clear
3:35 PM 55.4 °F - 26.6 °F 33% 29.94 in 10.0 mi WNW 18.4 mph 26.5 mph N/A   Clear
3:55 PM 55.4 °F - 28.4 °F 36% 29.95 in 10.0 mi WNW 17.3 mph 24.2 mph N/A   Clear
4:15 PM 53.6 °F - 30.2 °F 41% 29.97 in 10.0 mi WNW 18.4 mph 26.5 mph N/A   Clear
4:35 PM 53.6 °F - 30.2 °F 41% 29.98 in 10.0 mi WNW 12.7 mph 20.7 mph N/A   Clear
4:55 PM 51.8 °F - 30.2 °F 44% 30.00 in 10.0 mi WNW 16.1 mph - N/A   Clear
5:15 PM 50.0 °F - 32.0 °F 50% 30.03 in 10.0 mi NW 11.5 mph 23.0 mph N/A   Clear
5:35 PM 48.2 °F - 32.0 °F 54% 30.04 in 10.0 mi NW 16.1 mph 21.9 mph N/A   Clear
5:55 PM 46.4 °F 40.7 °F 33.8 °F 62% 30.05 in 10.0 mi NW 12.7 mph 23.0 mph N/A   Clear
6:15 PM 46.4 °F 40.4 °F 33.8 °F 62% 30.05 in 10.0 mi WNW 13.8 mph 17.3 mph N/A   Clear
6:35 PM 46.4 °F 39.8 °F 32.0 °F 57% 30.06 in 10.0 mi WNW 16.1 mph 20.7 mph N/A   Clear
6:55 PM 44.6 °F 37.8 °F 32.0 °F 61% 30.08 in 10.0 mi WNW 15.0 mph 23.0 mph N/A   Clear
7:15 PM 44.6 °F 36.9 °F 32.0 °F 61% 30.08 in 10.0 mi NW 18.4 mph 24.2 mph N/A   Clear
7:35 PM 44.6 °F 36.9 °F 32.0 °F 61% 30.10 in 10.0 mi NW 18.4 mph 28.8 mph N/A   Clear
7:55 PM 44.6 °F 35.7 °F 30.2 °F 57% 30.11 in 10.0 mi NW 24.2 mph 34.5 mph N/A   Clear
8:15 PM 42.8 °F 33.3 °F 28.4 °F 57% 30.12 in 10.0 mi NW 24.2 mph 33.4 mph N/A   Clear
8:35 PM 42.8 °F 33.8 °F 28.4 °F 57% 30.13 in 10.0 mi NW 21.9 mph 38.0 mph N/A   Clear
8:55 PM 39.2 °F 28.5 °F 24.8 °F 56% 30.14 in 10.0 mi NW 24.2 mph 40.3 mph N/A   Clear
9:15 PM 37.4 °F 25.9 °F 19.4 °F 48% 30.15 in 10.0 mi NW 25.3 mph 34.5 mph N/A   Clear
9:35 PM 35.6 °F 23.2 °F 12.2 °F 38% 30.17 in 10.0 mi NW 26.5 mph 38.0 mph N/A   Clear
9:55 PM 33.8 °F 20.8 °F 10.4 °F 38% 30.19 in 10.0 mi NNW 26.5 mph 31.1 mph N/A   Clear
10:15 PM 32.0 °F 18.9 °F 10.4 °F 41% 30.21 in 10.0 mi NW 24.2 mph 29.9 mph N/A   Clear
10:35 PM 30.2 °F 16.8 °F 14.0 °F 51% 30.23 in 10.0 mi NW 23.0 mph 28.8 mph N/A   Clear
10:55 PM 28.4 °F 15.8 °F 10.4 °F 47% 30.24 in 10.0 mi NW 18.4 mph 31.1 mph N/A   Clear
11:15 PM 26.6 °F 12.7 °F 14.0 °F 59% 30.25 in 10.0 mi NW 20.7 mph 27.6 mph N/A   Clear
11:35 PM 26.6 °F 13.4 °F 15.8 °F 64% 30.26 in 10.0 mi NW 18.4 mph 24.2 mph N/A   Clear
11:55 PM 24.8 °F 10.3 °F 12.2 °F 59% 30.27 in 10.0 mi NNW 20.7 mph 26.5 mph N/A   Clear